World > North America > United States > Missouri > Sulphur Springs  

Sulphur Springs, MO Hourly Weather Updates

Feedback E-mail the Weather

Quick WX

Sulphur Springs, MO Weather Maps

°F °C°F °C
Sulphur Springs Weather Map
UTC Time: 2/26/2024, 07:24
Your Time:

Sulphur Springs, MO Regional Weather

Expires:202402260800;;714129
ASUS43 KEAX 260715
RWREAX

WEATHER ROUNDUP FOR EASTERN KANSAS AND NORTHWEST MISSOURI
NATIONAL WEATHER SERVICE KANSAS CITY/PLEASANT HILL MO
100 AM CST MON FEB 26 2024


MOZ041-047>049-056>058-063>065-088>090-097-260800-
...EASTERN AND SOUTHERN MISSOURI...
  
CITY           SKY/WX    TMP DP  RH WIND       PRES   REMARKS
ST. LOUIS INTL CLEAR     46  36  68 CALM      29.83S                  
SPIRIT OF STL  CLEAR     38  33  82 CALM      29.82S                  
COLUMBIA       CLEAR     53  28  38 W7        29.84S                  
JEFFERSON CITY CLEAR     41  32  70 CALM      29.84S                  
MEXICO         CLEAR     45  32  61 SW8       29.82F                  
HANNIBAL       CLEAR     50  28  43 SW6       29.81S                  
ROLLA          CLEAR     51  34  52 SW9       29.86S                  
LEBANON        CLEAR    N/A N/A N/A CALM      29.89S                  
OSAGE BEACH    CLEAR     49  35  58 SW3       29.86F                  
SPRINGFIELD    CLEAR     44  36  73 S5        29.87F                  
BRANSON        CLEAR     52  41  66 CALM      29.91S                  
JOPLIN         CLEAR     54  38  54 SE8       29.86F                  
WEST PLAINS    CLEAR     54  39  57 SW7       29.91R                  
SIKESTON       CLEAR     55  46  71 SW10      29.87S                  

$$


SKY/WX - Weather  TMP - Temperature  DP - Dew Point  RH - Humidity
WIND - Wind Direction/Speed PRES - Barometric Pressure VSB - Visibility
WCI - Wind Chill Index E13G22 Wind - East Wind 13 mph/Gusts of 22 mph

Trending Headlines

Trending Entertainment Headlines

Sulphur Springs Radar Loop

Use the map search tool if you want to place a location marker on the radar map...

Sulphur Springs Quick Facts

National Two Day Weather Forecast


E-mail the Sulphur Springs Weather Forecast

Voice your opinion or tell us about page issues...